My Profile
  1. Member Settings
  2. My Devices
  3. Sign Out
        More Settings
      Elev 4 ft, 65.579 °N 37.150 °W

      Sermersooq, GL

      Kulusuk Airport Station36°

      Daily Observations

      DateTemp High/LowDew Pt High/LowHumidityWindMax WindWind GustPressurePrecip.Condition
      8/31/2019 48 °F / 39 °F 36 °F / 23 °F 53 % 10 mph - 29.7 in 0 in
      8/30/2019 48 °F / 37 °F 37 °F / 23 °F 64 % 25 mph - 29.79 in 0 in
      8/29/2019 46 °F / 37 °F 37 °F / 34 °F 81 % 10 mph - 29.68 in 0 in
      8/28/2019 52 °F / 39 °F 41 °F / 32 °F 72 % 10 mph - 29.53 in 0 in
      8/27/2019 50 °F / 41 °F 41 °F / 36 °F 77 % 20 mph - 29.32 in 0 in
      8/26/2019 50 °F / 43 °F 39 °F / 36 °F 79 % 20 mph - 29.25 in 0 in
      8/25/2019 48 °F / 41 °F 39 °F / 36 °F 78 % 21 mph - 29.41 in 0 in
      8/24/2019 48 °F / 39 °F 39 °F / 30 °F 72 % 16 mph - 29.78 in 0 in
      8/23/2019 45 °F / 39 °F 36 °F / 30 °F 73 % 10 mph - 29.75 in 0 in
      8/22/2019 46 °F / 41 °F 36 °F / 27 °F 65 % 17 mph - 29.78 in 0 in
      8/21/2019 48 °F / 37 °F 37 °F / 32 °F 73 % 9 mph - 29.78 in 0 in
      8/20/2019 48 °F / 37 °F 41 °F / 25 °F 76 % 16 mph - 29.69 in 0 in
      8/19/2019 50 °F / 41 °F 43 °F / 39 °F 81 % 5 mph - 29.72 in 0 in
      8/18/2019 50 °F / 45 °F 43 °F / 34 °F 68 % 13 mph - 29.71 in 0 in
      8/17/2019 54 °F / 43 °F 37 °F / 32 °F 61 % 17 mph - 29.7 in 0 in
      8/16/2019 54 °F / 45 °F 36 °F / 28 °F 51 % 12 mph - 29.74 in 0 in
      8/15/2019 48 °F / 34 °F 39 °F / 34 °F 85 % 8 mph - 29.74 in 0 in
      8/14/2019 45 °F / 36 °F 37 °F / 36 °F 91 % 8 mph - 29.84 in 0 in
      8/13/2019 43 °F / 37 °F 39 °F / 36 °F 85 % 10 mph - 30 in 0 in
      8/12/2019 48 °F / 37 °F 39 °F / 36 °F 87 % 10 mph - 30 in 0 in
      8/11/2019 46 °F / 39 °F 41 °F / 37 °F 88 % 12 mph - 30.03 in 0 in
      8/10/2019 45 °F / 41 °F 39 °F / 37 °F 88 % 12 mph - 30.03 in 0 in
      8/9/2019 46 °F / 39 °F 41 °F / 37 °F 85 % 13 mph - 30 in 0 in
      8/8/2019 46 °F / 43 °F 39 °F / 37 °F 80 % 13 mph - 29.94 in 0 in
      8/7/2019 52 °F / 45 °F 39 °F / 36 °F 64 % 12 mph - 29.96 in 0 in
      8/6/2019 52 °F / 41 °F 39 °F / 36 °F 72 % 15 mph - 30.03 in 0 in
      8/5/2019 52 °F / 37 °F 39 °F / 36 °F 84 % 14 mph - 29.91 in 0 in
      8/4/2019 48 °F / 37 °F 39 °F / 36 °F 84 % 8 mph - 30.04 in 0 in
      8/3/2019 43 °F / 37 °F 39 °F / 37 °F 94 % 12 mph - 30.02 in 0 in
      8/2/2019 50 °F / 37 °F 43 °F / 36 °F 81 % 13 mph - 30.1 in 0 in
      8/1/2019 54 °F / 37 °F 41 °F / 32 °F 65 % 12 mph - 30.12 in 0 in

      Charts

      Temperature
      Precipitation
      Wind
      essentialaccessibility.com
      We recognize our responsibility to use data and technology for good. We may use or share your data with our data vendors. Take control of your data.
      Glossary